Regional Weather Roundup
Issued by NWS

Home | Current Version | Previous Version | Graphics & Text | Print | Product List | Glossary On
Versions: 1 2 3 4 5 6 7 8 9 10 11 12 13 14 15 16 17 18 19 20 21 22 23 24 25 26 27 28 29 30 31 32 33 34 35 36 37 38 39 40 41 42 43 44 45 46 47 48 49 50
000
ASUS45 KBOU 210307
RWRCO

WEATHER ROUNDUP FOR COLORADO
NATIONAL WEATHER SERVICE DENVER/BOULDER CO
900 PM MDT MON OCT 20 2014

NOTE: "FAIR" INDICATES FEW OR NO CLOUDS BELOW 12000 FEET WITH NO
SIGNIFICANT WEATHER AND/OR OBSTRUCTIONS TO VISIBILITY.

COZ001>005-013-030-031-210400-
...NORTHWEST COLORADO...

CITY           SKY/WX    TMP DP  RH WIND       PRES   REMARKS
CRAIG          CLEAR     45  37  73 CALM      30.12S
HAYDEN         CLEAR     48  34  57 CALM      30.14S
MEEKER         CLEAR     47  37  68 CALM      30.13S
MOUNT WERNER   NOT AVBL
STEAMBOAT SPGS CLEAR     51  36  57 N6        30.16R
WALDEN         CLEAR     37  30  75 SE10      30.21S
$$

COZ006>008-011-210400-
...WEST CENTRAL VALLEYS...

CITY           SKY/WX    TMP DP  RH WIND       PRES   REMARKS
GRAND JUNCTION PTCLDY    56  37  49 NE6       30.04S
MONTROSE       PTCLDY    56  38  50 E9        30.14R
EAGLE          CLOUDY    52  39  62 E6        30.17S
RIFLE          CLEAR     54  38  54 SE7       30.09R
DELTA          PTCLDY    63  42  46 N5        30.09S
NUCLA          PTCLDY    54  37  54 SE8       30.17R
$$

COZ017>023-064>068-210400-
...SOUTHWEST COLORADO...

CITY           SKY/WX    TMP DP  RH WIND       PRES   REMARKS
DURANGO        MOCLDY    52  42  69 E3        30.19S
CORTEZ         CLEAR     54  42  64 E3        30.13S
PAGOSA SPRINGS PTCLDY    49  39  69 CALM      30.26R
TELLURIDE      PTCLDY    47  35  63 SE5       30.32S
WOLF CREEK PAS PTCLDY    36  30  80 SW8       30.45S
$$

COZ009-010-012-014-032>034-037-058>063-210400-
...CENTRAL COLORADO...

CITY           SKY/WX    TMP DP  RH WIND       PRES   REMARKS
ASPEN          PTCLDY    49  36  61 S6        30.23S
BUENA VISTA    CLEAR     42  34  72 W3        30.26S
COPPER MTN     PTCLDY    43  30  61 S15       30.45S
BERTHOUD PASS  FAIR      34  32  93 MISG      30.48S
COTTONWOOD PAS PTCLDY    50  30  46 SE3       30.35S
GUNNISON       CLEAR     50  32  50 N6        30.26R
KREMMLING      PTCLDY    50  32  50 CALM        N/A
LEADVILLE      CLOUDY    43  28  55 SE7       30.33S
MONARCH PASS   MOCLDY    37  30  75 S14       30.55F
SALIDA         PTCLDY    53  36  50 SW6       30.31R
SUNLIGHT       PTCLDY    45  34  65 CALM      30.39F
WILKERSON PASS NOT AVBL
$$

COZ069>075-210400-
...SAN LUIS VALLEY/SANGRE DE CRISTO MOUNTAINS...

CITY           SKY/WX    TMP DP  RH WIND       PRES   REMARKS
ALAMOSA        PTCLDY    50  35  56 E3        30.24R
LA VETA PASS   PTCLDY    43  28  56 S7        30.38S
SAGUACHE       PTCLDY    48  36  61 NW3       30.26R
$$

COZ035-036-038>040-210400-
...NORTHERN COLORADO FRONT RANGE...

CITY           SKY/WX    TMP DP  RH WIND       PRES   REMARKS
DENVER INTL AP PTCLDY    61  34  36 S21       30.07S
DMNS CITY PARK   N/A     62  34  35 S8        30.07R
AURORA         NOT AVBL
FRONT RANGE AP NOT AVBL
ERIE MUNI ARPT CLEAR     51  41  69 S6        30.05R
BOULDER MUN AP PTCLDY    64  36  34 SW8       30.04S
CENTENNIAL     PTCLDY    58  36  43 S15       30.11R
BROOMFIELD     PTCLDY    57  37  47 SW5       30.08S
FORT COLLINS   CLEAR     55  41  58 E3        30.05R
LONGMONT       CLEAR     53  42  66 CALM      30.06S
$$

COZ041-046-047-076>085-087-088-210400-
...PIKES PEAK/PALMER DIVIDE AND SOUTHERN FOOTHILLS...

CITY           SKY/WX    TMP DP  RH WIND       PRES   REMARKS
COLO. SPRINGS  CLEAR     57  37  47 S3        30.21R
A. F. ACADEMY  CLEAR     53  36  51 SE12      30.21R
ELLICOTT       CLEAR     52  40  63 S12       30.19R
FALCON         CLEAR     49  37  61 S8        30.24R
FORT CARSON    CLEAR     57  38  48 S8        30.18R
LIMON          CLEAR     47  39  74 CALM      30.15S
MONUMENT HILL  CLEAR     52  36  54 S21       30.19S
TRINIDAD       CLEAR     54  40  59 S7        30.17R
$$

COZ042>045-048>051-090-091-210400-
...NORTHEAST COLORADO...

CITY           SKY/WX    TMP DP  RH WIND       PRES   REMARKS
GREELEY ARPT   CLEAR     55  34  44 SE9       30.04S
AKRON          CLEAR     57  40  52 S13       30.09S
BURLINGTON     CLEAR     56  39  53 S12       30.12R
WRAY           CLEAR     60  40  46 S9        30.08S
STERLING       CLEAR     59  41  51 S8        30.06R
HOLYOKE        CLEAR     59  43  55 S8        30.07S
FORT MORGAN    CLEAR     57  35  43 SE8       30.07S
$$

COZ086-089-092>099-210400-
...SOUTHEAST COLORADO...

CITY           SKY/WX    TMP DP  RH WIND       PRES   REMARKS
PUEBLO         CLEAR     57  40  52 E8        30.11R
LA JUNTA       CLEAR     58  43  57 SE7       30.11R
LAMAR          CLEAR     58  43  57 SE13      30.09S
SPRINGFIELD      N/A     53  49  86 SE10      30.15R
$$



USA.gov is the U.S. government's official web portal to all federal, state and local government web resources and services.